Presure
353 375 369 347 334 329 324 316 318 321 330 351 321 421 236 254 222 262 205 217 211 187 205 196 197 199 200 207 206 208 206 208 192 196 202 185 173 208 203 193 189 203 208 181 192 186 190 183 202 191 188 208 193 192
370 357 341 333 323 317 311 316 317 322 334 383 320 337 247 252 255 240 216 210 223 211 223 219 207 212 200 215 198 197 199 202 203 206 191 183 209 189 199 184 184 195 187 209 190 209 195 179 205 203 207 202 194 210
351 343 330 324 316 311 319 324 335 338 367 384 412 230 237 255 240 230 223 208 207 211 194 194 194 202 202 184 191 195 199 193 188 193 181 207 197 164 187 195 206 179 199 194 192 189 183 206 198 185 216 205 207 221
340 340 323 317 315 316 324 342 359 331 441 443 288 229 254 229 237 219 215 206 210 213 194 202 190 187 182 187 201 196 193 195 189 184 198 171 194 188 200 195 179 215 188 188 183 190 208 189 212 213 202 221 204 232
341 330 328 321 323 330 339 419 407 398 409 276 247 243 238 222 216 211 213 209 214 207 201 197 194 185 177 188 192 191 197 195 178 174 207 182 192 186 194 191 197 190 180 184 205 209 205 202 210 197 217 205 226 221
325 322 320 325 334 364 427 349 354 372 255 249 249 234 230 219 214 216 198 199 204 192 200 198 171 192 193 190 194 198 170 175 196 202 174 177 191 200 184 202 174 189 205 203 222 183 208 218 220 229 198 228 221 237
331 329 332 340 367 378 373 349 346 251 246 261 227 214 216 206 213 199 201 162 192 205 186 202 181 190 182 179 181 170 194 187 197 188 185 193 167 187 173 169 204 205 192 191 206 208 205 209 226 209 220 220 235 246
337 346 354 365 372 421 351 355 313 244 261 232 225 219 212 207 202 206 195 191 210 192 202 202 196 181 200 187 181 191 205 170 187 199 201 182 195 220 214 198 195 202 204 204 202 222 211 229 223 239 234 237 246 291
345 352 373 397 373 347 344 243 249 260 248 241 231 213 219 199 201 208 208 200 183 199 196 196 213 199 201 208 186 190 198 189 206 197 186 204 182 186 206 186 181 211 217 216 207 207 218 229 231 240 279 300 317 304
377 385 403 409 353 341 255 228 252 217 222 227 212 212 216 203 161 195 187 193 178 175 168 198 172 193 196 188 193 197 205 199 202 206 225 223 211 219 221 180 198 195 209 195 222 222 216 234 247 298 286 269 296 315
411 386 389 345 327 242 252 254 238 220 221 212 203 202 198 203 202 193 199 186 187 190 168 195 200 196 201 204 200 210 180 191 200 180 213 216 188 184 197 201 193 208 209 220 224 232 232 301 285 262 292 298 315 325
425 395 352 283 238 233 230 229 223 215 208 209 202 204 196 189 201 171 197 199 194 196 209 213 196 186 209 203 180 188 191 175 180 205 195 200 218 194 220 221 213 211 219 227 234 256 292 298 275 291 309 319 327 384
359 348 337 226 228 245 218 222 217 216 219 194 199 202 196 169 198 208 206 200 197 206 193 185 192 209 207 193 180 212 215 215 204 193 200 197 219 222 217 209 212 224 234 294 278 268 296 298 295 303 321 322 377 472
337 306 216 212 211 221 211 218 215 194 201 221 211 198 206 175 212 215 205 213 213 200 217 189 179 211 184 201 216 230 189 193 191 198 186 204 207 210 219 224 236 272 250 277 285 290 299 300 302 321 322 377 454 487
265 240 217 212 214 211 208 217 208 208 225 221 204 205 203 207 208 202 192 199 217 193 217 213 175 185 206 204 184 182 195 201 203 227 208 209 222 215 267 255 255 280 289 293 303 310 301 299 316 319 382 428 492 483
260 229 214 213 204 206 216 201 211 174 210 207 198 204 207 213 200 191 177 184 225 206 204 181 197 200 199 202 202 203 207 195 201 197 209 213 229 254 242 269 296 292 296 303 312 301 299 309 313 363 383 407 482 462
248 250 213 214 214 186 212 216 211 212 208 217 221 212 225 222 221 229 187 228 205 228 211 189 179 196 192 187 197 210 195 213 219 212 257 240 235 223 208 218 292 297 299 311 309 297 300 312 317 377 391 391 469 452
255 229 213 216 216 214 206 212 219 213 217 215 217 182 191 194 225 227 226 202 184 180 182 183 205 198 193 196 211 229 219 261 253 242 233 211 221 287 279 294 294 302 305 315 302 299 302 309 323 366 399 381 467 452
240 231 216 218 196 205 195 200 212 204 221 230 205 230 228 222 217 200 205 224 195 200 196 194 206 203 209 220 215 248 249 230 221 208 221 228 210 247 292 300 296 299 304 313 292 299 304 309 322 361 364 378 378 460
199 202 214 216 199 229 189 193 209 201 226 187 206 202 232 233 238 193 190 198 196 219 224 209 205 208 218 262 247 222 217 212 227 213 212 252 268 288 291 302 295 297 303 307 290 300 304 311 315 351 347 382 364 354
205 234 195 199 216 217 207 207 197 223 220 199 228 190 214 216 208 215 187 198 203 196 201 216 223 274 221 220 211 204 192 207 228 207 251 252 267 282 293 298 296 297 301 307 290 298 303 307 303 339 350 387 374 358
230 229 218 199 220 212 211 205 214 197 196 223 199 201 201 211 209 214 206 206 213 241 238 263 229 212 206 190 194 201 201 200 238 250 250 257 264 276 292 290 295 296 299 306 293 295 302 298 293 324 339 341 383 366
243 224 210 213 210 198 204 219 214 216 220 212 214 212 206 209 215 234 231 255 261 252 222 205 199 196 202 199 200 193 206 209 242 238 255 249 258 272 289 292 292 292 296 301 296 292 296 297 298 307 330 331 336 380
267 272 323 301 239 223 219 216 217 218 216 209 207 230 274 282 273 260 218 202 193 200 203 195 197 192 192 199 200 204 225 226 236 228 243 246 253 262 279 296 291 291 293 296 293 292 293 298 295 294 315 330 332 337
271 271 269 270 269 272 273 274 274 271 265 259 249 237 216 207 198 201 206 200 194 190 190 198 207 206 204 201 212 221 223 223 231 226 240 244 250 258 273 288 295 292 293 292 293 292 292 298 290 285 302 322 325 330
237 238 236 237 238 237 233 229 222 220 217 208 202 198 199 202 202 199 198 199 199 196 192 199 200 204 207 212 209 215 227 225 228 228 238 239 246 259 271 288 297 292 293 294 282 298 293 298 292 287 295 304 321 320
221 219 218 222 221 215 212 209 204 202 205 207 204 203 200 199 201 203 195 196 193 204 200 202 206 206 206 204 205 202 227 227 227 229 230 239 246 252 272 293 298 295 292 294 284 297 297 292 297 286 289 300 304 317
212 211 209 209 208 207 210 206 207 207 203 204 206 203 203 190 191 191 193 197 202 204 202 201 205 209 205 209 203 208 225 226 225 229 229 235 243 252 272 293 299 299 292 293 291 289 299 293 295 291 286 294 301 305
208 202 205 207 208 207 204 200 201 201 199 200 193 177 189 192 194 196 192 195 203 207 209 210 211 205 207 212 210 205 221 224 224 231 233 232 242 258 275 285 301 303 294 292 294 283 296 296 293 293 291 294 296 301
210 210 210 206 206 208 203 198 189 191 194 194 195 198 197 195 193 193 194 197 200 206 205 203 203 204 215 212 209 213 217 220 226 227 232 235 242 257 277 281 301 305 298 293 293 281 290 295 290 293 289 296 293 297
206 209 198 191 193 191 192 193 180 187 189 192 192 194 191 192 197 199 193 193 199 201 202 201 201 203 209 208 211 215 220 218 219 227 232 238 245 259 277 281 299 308 303 294 292 287 282 292 289 284 289 289 298 296
198 196 197 198 199 192 188 188 189 189 192 192 190 190 195 198 198 199 197 195 193 193 197 198 200 202 205 209 206 217 223 218 221 229 233 241 246 267 288 283 303 306 307 294 294 292 281 287 288 284 282 278 293 296
198 197 192 190 190 189 190 190 192 195 197 197 194 195 196 196 196 197 197 194 192 197 195 199 200 203 208 208 210 219 225 218 222 230 238 244 250 278 292 293 307 308 307 295 292 296 292 283 288 282 274 276 289 298
Wind_Speed
49 51 55 65 66 68 71 75 78 80 79 79 96 75 98 86 73 82 99 84 86 82 81 83 82 81 82 78 70 62 62 64 71 70 77 73 63 74 73 73 59 79 84 66 85 73 76 72 98 95 82 109 88 90
53 59 65 69 71 74 77 78 77 77 77 69 98 112 88 88 88 86 91 94 75 77 68 65 69 70 73 60 65 65 66 70 74 74 72 70 73 70 74 61 55 77 68 89 75 98 83 72 107 104 107 101 95 114
56 61 69 72 74 72 71 73 72 71 69 74 84 97 93 89 87 87 84 84 76 71 74 72 74 68 59 72 69 68 69 71 69 72 69 67 68 53 72 83 86 53 90 75 82 78 78 110 97 87 116 106 112 129
58 64 72 70 70 68 67 63 58 69 67 73 96 97 92 90 86 86 80 78 75 70 73 72 66 68 69 68 67 68 71 72 69 60 75 49 77 68 88 75 54 92 70 76 71 91 114 89 115 115 105 121 108 141
58 63 65 64 62 60 54 57 68 76 75 98 103 100 96 96 89 84 76 73 70 73 68 64 66 72 60 66 63 58 64 65 38 44 78 42 69 61 78 72 90 84 69 73 110 109 106 104 114 98 123 107 134 125
58 62 63 61 57 48 48 77 80 83 107 106 101 96 93 88 83 78 82 71 72 71 67 70 49 70 71 68 71 70 26 41 76 74 35 43 80 92 80 90 60 77 102 96 110 81 115 124 129 133 98 139 130 148
57 57 55 52 49 65 91 93 98 105 107 104 100 93 91 90 85 83 80 53 66 74 69 74 60 69 53 44 49 29 72 54 64 62 55 71 60 52 58 66 94 93 79 86 101 108 107 113 130 111 125 124 142 147
49 49 50 51 70 53 94 96 104 105 114 101 102 93 90 86 79 81 75 70 74 71 77 76 75 50 77 59 41 63 82 29 58 77 80 54 71 102 98 81 81 92 98 101 102 124 117 133 123 141 142 136 148 125
48 52 54 57 90 100 99 98 101 104 102 100 98 89 88 75 78 79 76 77 51 67 70 66 80 72 74 80 50 62 70 61 78 57 51 83 59 66 94 72 72 105 113 112 108 107 121 137 137 145 128 110 99 106
49 56 60 70 102 103 103 91 103 71 90 95 86 81 80 79 50 70 55 66 37 25 24 67 24 55 64 45 58 62 75 56 73 80 94 94 94 99 102 68 86 87 108 91 124 125 113 142 145 109 121 121 112 101
46 76 83 103 103 97 97 101 100 91 92 85 72 74 65 76 76 61 67 50 38 41 35 43 60 56 58 63 57 59 37 52 69 51 87 87 63 66 83 90 84 104 106 115 128 128 130 102 114 114 107 105 101 98
58 83 95 96 93 92 91 89 95 91 84 90 81 87 69 56 72 33 51 54 53 46 62 67 34 34 61 45 34 48 53 46 50 78 70 81 104 80 108 112 108 107 115 129 132 135 107 99 113 104 97 97 96 93
93 95 97 87 83 93 82 95 94 92 93 62 71 75 55 46 64 73 73 51 38 57 25 16 27 47 49 48 39 67 70 74 64 62 72 75 94 102 106 100 110 123 131 92 105 109 91 92 95 93 93 94 91 69
89 90 94 88 85 88 86 87 87 60 70 90 86 49 66 36 76 81 53 70 75 40 73 20 35 56 26 42 63 79 50 58 59 73 65 85 93 99 115 121 123 95 102 98 88 86 85 87 87 87 89 88 70 53
95 99 92 87 86 82 81 90 80 75 91 94 68 62 52 60 66 64 47 36 68 41 67 50 25 34 47 50 43 47 59 69 75 97 84 92 103 102 88 91 92 83 82 79 77 78 78 82 84 85 84 74 51 49
97 93 89 89 73 74 86 59 75 45 70 63 48 61 63 79 44 15 27 17 77 35 50 23 35 44 49 55 55 60 69 59 72 68 92 104 112 83 90 81 70 71 72 72 73 73 76 79 79 82 77 70 47 44
89 90 78 82 81 45 75 83 71 73 61 73 77 58 83 81 74 83 28 74 29 73 47 32 31 47 41 41 70 76 62 86 91 92 70 75 78 84 80 93 68 67 69 71 70 71 74 76 77 78 72 68 46 44
95 92 83 80 81 78 65 70 77 63 72 58 61 33 33 38 77 81 77 40 17 24 28 36 61 53 44 53 80 92 86 61 63 62 67 73 80 62 66 62 64 64 67 68 68 70 72 73 77 76 67 66 44 43
95 96 83 82 48 54 41 34 69 30 53 73 24 71 69 62 43 20 21 51 27 33 33 36 53 52 64 68 66 63 49 54 56 61 64 62 77 71 62 63 63 64 66 66 66 69 70 72 75 74 70 64 61 43
44 41 61 74 53 86 37 35 29 21 72 29 18 17 78 74 67 16 17 28 34 61 70 54 50 59 72 45 40 43 46 51 51 58 67 60 63 63 64 64 62 63 65 64 65 68 70 72 73 74 71 60 60 60
53 92 39 34 55 63 32 31 27 68 52 23 66 24 34 47 36 52 16 39 49 31 47 71 69 33 34 33 35 40 48 50 48 62 60 60 67 68 66 66 65 65 66 65 64 67 69 71 70 73 71 59 58 59
82 85 71 32 72 48 51 31 44 20 17 60 16 19 23 49 48 56 51 58 49 59 63 34 27 25 29 38 41 42 49 56 50 59 63 68 72 74 71 69 67 66 67 65 65 67 68 67 66 72 71 69 55 56
71 69 41 53 46 24 34 60 54 51 62 51 53 41 42 53 59 59 55 39 35 26 22 22 26 32 34 38 42 49 52 56 58 60 69 72 76 77 74 70 68 67 67 65 65 66 67 67 67 69 71 69 67 52
38 37 34 38 75 73 62 58 58 64 62 48 42 63 23 21 22 24 20 18 21 21 22 26 29 33 40 43 47 50 48 53 62 60 72 76 80 82 80 71 69 67 66 65 64 65 66 66 65 66 69 69 67 64
44 42 40 39 37 36 35 32 30 29 28 27 27 25 22 20 19 16 15 17 17 20 25 31 35 37 42 45 46 48 52 56 64 63 77 80 83 85 83 76 69 68 66 64 64 64 64 64 63 61 65 69 67 66
42 41 40 39 38 37 36 34 32 30 28 26 24 21 17 14 14 14 16 19 22 24 27 32 34 40 42 45 47 52 58 61 65 69 79 81 86 88 85 77 69 68 66 64 62 63 62 62 61 61 64 66 68 66
40 38 37 35 34 33 31 29 27 25 21 19 17 16 14 15 16 17 16 20 22 28 31 35 38 41 43 45 47 49 62 65 68 73 77 85 88 91 86 77 70 67 66 64 62 62 61 61 61 60 62 64 66 67
36 35 33 31 30 28 25 25 23 22 19 18 19 17 15 14 13 15 19 23 28 32 34 37 40 41 45 48 49 56 64 68 71 76 78 84 91 92 88 78 71 66 65 63 62 62 61 61 61 61 61 63 64 65
32 32 29 27 25 24 22 20 18 17 16 14 15 21 16 15 18 21 23 27 33 36 38 41 44 46 50 54 56 59 66 70 73 79 83 84 92 95 88 83 71 65 64 62 60 60 60 59 60 60 61 62 63 63
28 27 25 24 23 21 19 18 18 15 13 13 16 19 21 22 23 25 28 31 34 38 40 43 46 50 53 56 60 64 67 70 77 81 85 88 93 96 88 84 73 65 62 61 59 58 58 58 58 59 59 62 61 62
30 27 27 27 24 22 20 18 23 19 18 20 22 24 25 27 28 30 32 33 37 40 43 46 49 53 57 60 63 66 70 71 73 82 88 92 96 96 90 85 74 64 59 59 58 55 56 56 55 56 57 59 59 59
30 28 26 23 22 21 22 21 21 22 23 25 27 28 31 33 33 34 37 38 38 41 45 48 52 57 61 64 65 69 74 72 76 87 90 95 99 96 83 83 71 65 58 58 56 54 54 54 53 52 53 55 57 57
31 29 26 25 24 24 25 26 28 30 31 32 32 34 36 37 38 38 41 42 43 49 49 53 56 62 66 67 68 71 77 73 79 89 94 98 100 92 81 78 69 63 58 56 56 53 52 52 51 50 50 52 54 55
Wind_Direction
182 179 173 176 178 182 182 185 189 191 191 192 184 191 193 189 194 190 213 201 210 227 214 225 230 235 238 240 242 241 246 246 255 258 256 270 268 270 275 278 280 281 279 285 298 299 303 296 313 306 303 311 301 299
170 171 173 177 180 183 187 190 192 191 188 195 182 178 185 184 187 184 195 206 200 208 205 213 222 224 233 234 242 247 251 251 253 254 267 273 268 280 282 284 288 293 282 285 301 295 313 293 307 309 306 310 299 310
168 170 176 179 184 187 191 194 195 191 194 188 182 184 183 184 182 184 189 204 206 200 219 221 229 229 236 248 249 251 253 255 263 266 273 272 277 259 288 289 292 294 296 302 303 308 299 302 306 294 308 309 308 309
168 174 177 181 185 189 194 196 194 186 182 175 176 182 179 177 175 188 193 201 197 195 213 215 230 237 246 250 247 252 256 260 266 275 275 268 278 288 288 292 296 290 303 302 299 301 300 298 305 308 305 306 305 309
169 173 177 180 185 189 186 177 171 162 163 173 170 175 174 184 187 189 188 195 193 200 203 214 221 238 249 250 255 263 262 266 266 274 272 287 283 289 283 297 293 291 294 300 298 299 303 305 307 300 306 304 310 309
166 172 176 181 181 185 181 156 153 158 167 168 170 177 172 180 181 177 202 199 195 215 204 211 240 232 237 245 247 251 272 285 268 269 281 292 287 282 280 288 282 303 294 300 297 291 304 304 305 306 300 309 310 309
171 172 173 175 176 169 160 158 162 166 167 164 174 183 177 189 181 197 195 204 202 203 227 209 243 236 249 261 264 264 259 270 268 284 292 280 277 302 282 284 295 297 301 293 301 303 304 305 305 304 305 304 307 309
169 171 173 175 167 179 156 159 163 170 164 172 176 177 184 189 194 192 202 211 199 218 214 216 224 223 233 252 259 260 254 267 281 275 279 276 287 278 283 298 298 291 298 298 301 303 304 304 305 307 308 308 308 306
169 167 171 176 156 151 156 163 162 161 163 162 165 180 176 197 196 195 195 204 214 215 216 227 222 232 233 239 270 265 262 280 271 292 300 284 287 294 294 293 287 296 301 305 302 303 306 307 308 307 305 302 301 302
172 165 171 162 150 154 154 169 160 169 170 168 179 180 181 191 197 207 211 214 214 204 206 231 236 248 249 266 267 266 264 280 283 284 276 279 290 292 294 290 300 301 304 300 303 307 304 307 306 303 306 309 305 302
168 157 151 148 150 155 156 159 162 166 167 172 180 186 197 197 201 202 210 213 215 227 213 242 243 254 257 258 267 269 271 303 280 280 286 288 293 291 300 301 299 303 304 305 306 307 308 302 305 307 303 301 303 304
150 148 145 148 154 158 158 159 163 169 173 178 184 191 195 192 204 166 216 224 225 236 236 239 243 253 257 270 271 271 273 274 285 296 287 290 293 294 297 300 303 304 307 305 305 304 302 301 305 304 304 305 306 310
134 136 138 153 156 152 163 161 167 169 173 190 192 194 201 176 207 214 222 229 234 237 239 242 279 264 274 265 267 279 285 288 300 295 299 299 298 300 302 303 303 301 302 301 303 304 301 302 303 306 309 310 314 308
131 127 151 158 163 159 166 169 171 184 186 184 192 198 201 167 213 218 228 230 238 246 244 287 243 268 287 298 282 275 283 290 293 304 290 304 304 303 302 301 302 303 306 300 300 302 304 305 308 313 314 318 318 313
140 150 159 163 164 168 174 170 180 184 186 191 196 204 207 215 219 216 214 235 239 229 247 260 252 283 292 295 277 282 291 299 301 296 303 306 303 306 303 304 305 298 301 304 307 308 309 312 316 317 324 324 321 319
147 157 162 167 173 177 174 179 176 162 195 200 182 197 213 216 216 173 192 200 240 259 249 262 287 288 286 276 293 298 296 300 302 301 304 301 301 303 305 305 306 307 309 311 313 314 316 318 320 328 329 329 328 325
157 159 168 170 174 152 178 182 189 195 199 206 209 215 214 220 226 230 197 237 271 247 270 265 256 283 286 284 299 297 298 302 300 302 300 302 305 307 311 306 315 314 315 318 319 319 320 325 328 336 336 336 335 333
160 165 171 172 179 182 182 187 194 198 206 209 214 183 171 198 229 233 237 237 237 247 257 257 287 289 288 293 295 293 296 296 299 301 304 306 302 317 315 319 321 321 322 323 323 325 327 331 335 341 342 343 344 341
165 169 175 178 167 177 160 160 197 173 201 209 180 223 228 233 224 225 248 245 258 279 280 286 293 294 299 296 296 299 299 302 305 306 300 303 301 312 329 328 328 327 327 328 328 331 334 337 340 346 346 347 348 349
152 150 170 178 173 191 170 168 183 161 213 177 195 173 231 236 236 222 238 280 283 269 274 291 291 293 295 292 294 303 306 301 301 299 297 325 332 338 337 333 332 331 332 332 333 336 339 341 343 350 350 350 350 350
172 180 161 166 192 194 183 186 166 213 217 175 230 186 260 258 279 270 259 281 285 282 291 288 290 282 293 300 301 301 304 298 302 303 335 328 340 342 340 338 337 336 336 335 337 340 343 344 345 351 353 352 353 353
184 187 192 172 198 202 209 199 216 182 192 228 233 262 262 258 276 274 279 277 278 278 283 273 278 288 290 299 298 297 295 297 331 342 342 344 344 344 344 342 340 339 338 338 340 342 344 346 346 352 355 355 353 354
192 198 192 194 202 181 213 219 226 230 236 245 251 242 261 270 271 271 275 264 259 252 262 277 284 288 291 294 294 298 299 301 344 342 346 346 346 347 346 343 342 341 340 341 342 344 345 347 348 351 355 356 358 354
168 171 159 167 215 219 223 228 234 237 243 253 253 256 223 197 208 217 225 236 254 261 268 288 294 299 298 294 297 302 324 331 345 339 347 348 348 347 349 344 343 342 342 342 344 345 346 348 349 350 355 357 359 359
142 144 147 149 155 159 163 166 170 174 179 181 183 184 187 196 212 223 234 256 275 293 299 292 288 293 297 300 310 326 333 337 344 341 349 349 348 347 348 346 342 342 342 343 344 345 346 348 349 350 354 357 359 1
146 148 152 155 157 159 161 163 167 169 170 177 188 199 205 215 230 245 256 266 276 286 294 299 303 304 307 316 318 326 341 340 344 344 348 349 349 348 347 346 342 341 342 343 344 344 345 347 349 350 352 356 359 1
154 156 158 158 159 162 164 167 174 180 183 187 196 205 218 231 245 259 269 280 291 296 302 304 305 309 314 317 322 321 342 342 343 346 346 349 349 348 346 345 342 340 342 342 343 344 345 347 348 350 352 355 358 1
159 161 163 165 167 170 171 178 182 187 192 201 210 214 227 239 259 283 293 300 302 304 305 307 310 316 319 324 324 330 341 342 342 345 345 347 347 347 346 345 340 339 340 341 341 343 344 346 347 349 351 353 356 359
168 171 172 173 175 179 183 186 193 200 209 221 225 237 252 275 284 290 297 304 305 307 310 313 318 321 324 327 329 330 338 341 341 344 344 344 346 345 344 344 340 338 338 340 340 341 343 344 346 348 349 351 353 357
180 181 183 183 187 191 195 202 211 223 238 255 264 268 273 281 289 296 301 304 308 311 314 317 320 323 326 328 329 332 334 336 340 342 342 343 344 344 342 342 339 337 336 337 339 340 342 343 345 346 348 349 352 354
188 190 191 196 198 202 209 218 228 236 247 257 265 272 279 286 292 297 299 304 310 313 316 318 320 323 325 326 328 330 332 332 335 340 340 340 342 342 340 339 339 335 334 335 336 337 339 341 343 345 346 347 349 351
200 203 205 209 215 222 227 237 246 254 261 266 272 278 283 286 292 296 301 306 308 312 315 317 319 320 323 325 324 328 331 330 334 337 337 338 339 339 336 336 335 333 332 333 333 334 335 338 340 342 344 345 345 349
212 216 219 223 230 238 246 252 257 261 265 270 276 281 285 290 293 297 301 303 306 310 313 315 318 318 320 320 322 325 330 328 332 335 335 336 336 334 334 334 332 330 330 328 331 331 332 334 336 339 341 342 344 346